[Iaude] MPEC E160: 2024 EK3 [a=1.79,e=0.45,i=3.0,H=28.7]
    mpec at cfa.harvard.edu 
    mpec at cfa.harvard.edu
       
    Tue Mar 12 17:00:37 EDT 2024
    
    
  
M.P.E.C. 2024-E160                               Issued 2024 March 12, 20:59 UT
     The Minor Planet Electronic Circulars contain information on unusual
         minor planets, routine data on comets and natural satellites,
         and occasional editorial announcements.  They are published
    on behalf of Division F of the International Astronomical Union by the
          Minor Planet Center, Smithsonian Astrophysical Observatory,
                          Cambridge, MA 02138, U.S.A.
			  
             Prepared using the Tamkin Foundation Computer Network
                              MPC at CFA.HARVARD.EDU
            URL https://www.minorplanetcenter.net/    ISSN 1523-6714
                                    2024 EK3                                    
Observations:
     K24E03K*1C2024 03 12.26195009 30 37.876+36 02 52.66         20.47GVEE160G96
     K24E03K 1C2024 03 12.26760509 30 46.818+36 02 26.23         20.45GVEE160G96
     K24E03K 1C2024 03 12.27327109 30 55.894+36 01 59.81         21.33GVEE160G96
     K24E03K 1C2024 03 12.27894109 31 04.955+36 01 32.95         20.26GVEE160G96
     K24E03K  C2024 03 12.29387809 31 26.675+35 59 50.79         20.9 GVEE160H01
     K24E03K  C2024 03 12.29731709 31 32.346+35 59 32.97         20.1 GVEE160H01
     K24E03K KC2024 03 12.30244309 31 43.345+35 59 35.20         20.36GVEE160I52
     K24E03K KC2024 03 12.30361909 31 45.221+35 59 29.22         20.42GVEE160I52
     K24E03K KC2024 03 12.30480209 31 47.240+35 59 23.24         20.79GVEE160I52
     K24E03K KC2024 03 12.30598009 31 49.202+35 59 16.76         20.18GVEE160I52
     K24E03K KC2024 03 12.35184009 33 07.400+35 54 56.30         20.74GVEE160I52
     K24E03K KC2024 03 12.35301309 33 09.400+35 54 49.30         20.28GVEE160I52
     K24E03K KC2024 03 12.35418909 33 11.470+35 54 41.70         21.42GVEE160I52
     K24E03K KC2024 03 12.35536809 33 13.480+35 54 36.30         20.19GVEE160I52
     K24E03K KB2024 03 12.83933009 53 15.39 +35 03 45.5          19.7 GXEE160958
     K24E03K KB2024 03 12.84640009 53 33.04 +35 02 58.1          19.6 GXEE160958
     K24E03K KB2024 03 12.85348109 53 50.53 +35 02 09.4          19.6 GXEE160958
Observer details:
958 Observatoire de Dax.  Observer P. Dupouy.  0.50-m f/4.5 Reflector + CMO.
G96 Mt. Lemmon Survey.  Observer D. Rankin.  Measurers T. Beuden, V. F.
    Carvajal, D. Fay, J. B. Fazekas, D. C. Fuls, A. R. Gibbs, A. D. Grauer, H.
    Groeller, J. K. Hogan, R. A. Kowalski, S. M. Larson, G. J. Leonard, D.
    Rankin, R. L. Seaman, F. C. Shelly, K. W. Wierzchos.  1.5-m reflector +
    10K CCD.
H01 Magdalena Ridge Observatory, Socorro.  Observers W. H. Ryan, E. V. Ryan.
    Measurer W. H. Ryan.  2.4-m f/8.9 Ritchey-Chretien + CCD.
I52 Steward Observatory, Mt. Lemmon Station.  Observer H. Groeller.  Measurers
    T. Beuden, V. F. Carvajal, D. Fay, J. B. Fazekas, D. C. Fuls, A. R. Gibbs,
    A. D. Grauer, H. Groeller, J. K. Hogan, R. A. Kowalski, S. M. Larson, G.
    J. Leonard, D. Rankin, R. L. Seaman, F. C. Shelly, K. W. Wierzchos.  1.0-m
    prime focus + CCD.
Orbital elements:
2024 EK3                                                 Earth MOID = 0.0009 AU
Epoch 2024 Mar. 31.0 TT = JDT 2460400.5                 Veres                   
M   1.84141              (2000.0)            P               Q                  
n   0.41293633     Peri.  192.49492     -0.98901627     +0.14776152             
a   1.7859967      Node   355.99689     -0.13070614     -0.88586852             
e   0.4461626      Incl.    3.00074     -0.06901251     -0.43977665             
P   2.39           H   28.77          G   0.15           U   8                  
Residuals in seconds of arc
240312 G96  0.6+  0.7+    240312 I52  0.4+  0.3-    240312 I52  0.1+  0.5-
240312 G96  0.1-  0.1-    240312 I52  0.4-  0.1-    240312 I52  0.7-  1.4+
240312 G96  0.1+  0.2-    240312 I52  0.4+  0.1+    240312 958  0.2-  0.0
240312 G96  0.5-  0.2-    240312 I52  0.5+  0.1-    240312 958  0.9+  0.1+
240312 H01  0.1+  0.1-    240312 I52  0.8+  0.1-    240312 958  0.7-  0.1-
240312 H01  0.0   0.1+    240312 I52  0.1+  0.0
Ephemeris:
2024 EK3                 a,e,i = 1.79, 0.45, 3                   q = 0.9892
Date    TT    R. A. (2000) Decl.     Delta      r    Elong.  Phase     V
2024 02 11    08 16 33.9 +34 52 17   0.1344  1.1082   152.9    23.9    25.8
...
2024 02 26    08 12 06.9 +36 29 08   0.07171 1.0442   137.9    39.4    24.7
...
2024 03 05    08 21 16.4 +37 00 28   0.04006 1.0190   131.9    46.4    23.6
...
2024 03 11    09 01 50.1 +36 49 38   0.01677 1.0050   133.3    46.0    21.7
2024 03 12    09 23 04.4 +36 17 39   0.01300 1.0031   136.1    43.4    21.0
2024 03 13    10 00 25.0 +34 43 57   0.0093601.0013   141.7    38.0    20.2
...
2024 03 19    18 40 51.2 -34 30 01   0.01576 0.9930    80.2    98.9    23.3
...
2024 03 27    19 31 45.5 -36 31 02   0.04652 0.9892    78.0    99.4    25.7
...
2024 04 11    19 50 02.5 -36 40 46   0.1021  1.0050    88.7    85.5    26.8
M. P. C. Staff               (C) Copyright 2024 MPC           M.P.E.C. 2024-E160
    
    
More information about the Iaude
mailing list